www.pogodaiklimat.ru

АРХИВ ПОГОДЫ в Глазго

Время (UTC), дата Ветер
(напр.,м/с)
 
Видим.   Явления Облачность Т
(С)
Тd
(С)
f
(%)
Тe
(С)
Тes
(С)
Комфортность

P
(гПа)

Po
(гПа)
Тmin
(С)
Tmax
(С)
R
(мм)
SD
(см)
05:53 18.05 В  11 км  слабый дождь  10/10 270 м  +3.3  +1.1  85  -3  -3    1015.7  932.5         
06:24 18.05 В  14 км  слабый дождь  10/10 300 м  +3.9  +1.1  82  -3  -3      932.5         
06:50 18.05 В  16 км  слабый дождь  10/10 330 м  +4.0  +1.0  81  -2  -2      932.5         
06:53 18.05 В  16 км  слабый дождь  10/10 330 м  +3.9  +1.1  82  -2  -2    1015.4  932.5         
07:06 18.05 В  16 км  слабый дождь  10/10 270 м  +3.9  +1.7  86  -2  -2      932.2         
07:31 18.05 В  16 км  слабый дождь  10/10 420 м  +4.4  +1.7  83  -2  -2      932.2         
07:39 18.05 В  7
{10} 
16 км  слабый дождь  10/10 420 м  +4.4  +1.7  83  -2  -2      932.2         
07:53 18.05 В  16 км  слабый дождь  10/10 420 м  +4.4  +1.7  83  -1  -1    1015.4  932.2      1.5   
08:53 18.05 В  13 км  слабый дождь  10/10 360 м  +4.4  +1.7  83  -1  -1    1015.6  932.5         
09:00 18.05 В  16 км  слабый дождь  10/10 360 м  +4.4  +1.7  83  0  0      932.5         
09:53 18.05 В  11 км  слабый дождь  10/10 750 м  +4.4  +1.7  83  -0  -0    1016.2  933.1         
10:30 18.05 СВ  16 км  слабый дождь  10/10 600 м  +4.4  +2.2  86  -0  -0      933.4         
10:53 18.05 СВ  16 км  слабый дождь  10/8 1500 м
[средняя] 
+5.0  +2.2  82  -0  -0    1016.9  933.7  +3.3  +5.0  4.1   
11:19 18.05 СВ  7
{10} 
10 км  слабый дождь  10/10 450 м  +5.0  +1.7  79  -1  -1      934.0         
11:34 18.05 В  14 км  слабый дождь  10/10 420 м  +5.0  +1.7  79  -1  -1      934.0         
11:53 18.05 СВ  10 км  слабый дождь  10/10 870 м  +4.4  +1.7  83  -1  -1    1017.7  934.3         
12:04 18.05 СВ  10  8 км  слабый дождь  10/10 360 м  +4.4  +1.7  83  -3  -3      934.3         
12:20 18.05 В  10
{14} 
11 км  слабый дождь  10/10 360 м  +3.3  +0.6  82  -4  -4      934.3         
12:24 18.05 В  11
{14} 
11 км  слабый дождь  10/10 330 м  +3.3  +0.6  82  -4  -4      934.3         
12:53 18.05 В  8
{11} 
14 км  слабый дождь  10/10 660 м  +3.3  +0.6  82  -4  -4    1018.4  934.7         
13:10 18.05 В  11 км  слабый дождь  10/10 630 м  +3.9  +0.6  79  -2  -2      935.0         
13:53 18.05 СВ  16 км  слабый дождь  10/10 810 м  +3.9  +0.6  79  -2  -2    1019.2  935.3      1.8   
14:07 18.05 В  13 км  слабый дождь  10/10 450 м  +3.9  +0.6  79  -1  -1      935.6         
14:34 18.05 В  14 км  слабый дождь  10/10 390 м  +3.9  +0.6  79  -1  -1      935.9         
14:53 18.05 В  16 км  слабый дождь  10/10 390 м  +3.9  +1.1  82  -1  -1    1019.9  935.9         
14:55 18.05 В  16 км  слабый дождь  10/10 390 м  +3.9  +1.1  82  -1  -1      935.9         
15:09 18.05 ЮВ  16 км    10/10 330 м  +3.3  +1.1  85  -1  -1      935.9         
15:17 18.05 Ю  16 км    10/10 330 м  +3.3  +1.1  85  -0  -0      936.2         
15:53 18.05   16 км    10/10 1800 м  +3.3  +1.1  85  +2  +2    1020.1  936.2         
16:13 18.05 З  16 км    10/10 180 м  +3.9  +1.1  82  +2  +2      936.2         
16:31 18.05   16 км    10/10 180 м  +3.9  +1.1  82  +3  +3      936.5         
16:53 18.05 В  16 км    10/8 360 м
[средняя] 
+5.6  0.0  67  +1  +1    1020.5  936.8  +3.3  +5.6  2.3   
17:01 18.05 В  16 км    10/5 240 м
[средняя] 
+5.6  -0.6  64  +1  +3      936.8         
17:53 18.05 СВ  16 км    10/10 720 м  +6.1  -0.6  62  +2  +2    1020.7  937.2         
18:53 18.05 СВ  16 км    10/10 780 м  +6.7  0.0  62  +2  +2    1020.8  937.2         
19:24 18.05 В  16 км    10/8 900 м
[средняя] 
+7.8  -0.6  55  +4  +5      937.2         
19:53 18.05 В  16 км    10/10 990 м  +7.8  -0.6  55  +4  +4    1020.5  937.2         
20:53 18.05 В  16 км    10/8 1110 м
[средняя] 
+9.4  -0.6  50  +6  +6    1020.4  937.2         
21:53 18.05 СВ  16 км    10/5 1200 м
[средняя] 
+8.9  -0.6  51  +6  +7    1020.6  937.2         
22:53 18.05 В  16 км    10/2 1200 м
[средняя] 
+8.9  -1.1  49  +6  +6    1020.7  937.5  +5.6  +9.4     
23:53 18.05 В  16 км    8/0 3600 м
[средняя] 
+8.9  -1.1  49  +6  +8    1021.1  937.8         
00:53 19.05 В  16 км    8/0 3300 м
[средняя] 
+8.3  -0.6  53  +6  +7    1021.5  938.1         
01:53 19.05   16 км    ясно  +7.8  -0.6  55  +7  +8    1021.6  938.1         
02:53 19.05 С  16 км    ясно  +6.7  0.0  62  +4  +4    1021.8  938.1         
03:53 19.05 С  16 км    ясно  +5.0  0.0  70  +2  +2    1022.0  938.1         
04:53 19.05 СВ  16 км    ясно  +3.9  -0.6  72  -0  -0    1022.0  938.1  +3.9  +9.4     
05:53 19.05 СВ  16 км    ясно  +3.3  -1.1  73  -1  -1    1021.9  938.1         
06:53 19.05 СВ  16 км    ясно  +2.8  -1.1  75  -2  -2    1021.8  938.1         

 

Местоположение метеостанции Glasgow International Airport: широта 48.2139 долгота -106.6214 высота над уровнем моря 699 м.

В архиве по умолчанию представлена погода в Глазго за последние 1-2 суток. Обновление информации о фактической погоде в базе происходит ежечасно! Архивные данные за месяц целиком и за предыдущие месяцы Вы можете получить, выбрав интересующий диапазон дат из раскрывающегося списка и нажав кнопку "Ввод!".

Внимание! Архив погоды МЕТАР в базе сайта в настоящее время начинается c 1 января 2011 г. Нет смысла пытаться выбрать более раннюю дату.

Внимание! Время в таблицах - всемирное. Для получения местного времени необходимо прибавить поправку, которая в Глазго равна -7 ч.

Ветер - указаны скорость ветра в м/с и направление, откуда дует ветер: С - северный, СВ - северо-восточный, В - восточный, ЮВ - юго-восточный, Ю - южный, ЮЗ - юго-западный, З - западный, СЗ - северо-западный.
Видимость - горизонтальная дальность видимости в метрах или километрах. При видимости от 1 до 10 км при отсутствии осадков обычно наблюдается дымка, при ухудшении видимости до 1 км и менее - туман. В сухую погоду видимость может ухудшаться дымом, пылью или мглою.
Атмосферные явления - указаны явления, наблюдавшиеся в указанный момент времени.
Облачность - указаны через наклонную черту верхняя и нижняя облачность в баллах и высота нижней границы облаков в метрах. Внимание: облачность, как и прочие метеорологические величины в США измеряются автоматическими метеостанциями. Указанные значения в баллах носят условный характер и показывают процент времени, в течение которого, в среднем, лазерный луч высотомера отражался от облаков обратно.
T - Температура воздуха - температура, измеренная на высоте 2 м над землей.
Td - Температура точки росы - температура, при понижении до которой содержащийся в воздухе водяной пар достигнет насыщения.
f - Относительная влажность воздуха - влажноcть воздуха, измеренная на высоте 2 м над землей.
Te - Эффективная температура - температура, которую ощущает одетый по сезону человек в тени. Характеристика душности погоды. При расчете учитывается влияние влажности воздуха и скорости ветра на теплоощущения человека.
Tes - Эффективная температура на солнце - температура, которую ощущает человек, с поправкой на солнечный нагрев. Характеристика знойности погоды. Зависит от высоты солнца над горизонтом, облачности и скорости ветра. Ночью, в пасмурную погоду, а также при ветре 12 м/с и более поправка равна нулю.
P - Атмосферное давление - приведенное к уровню моря атмосферное давление.
Po - Атмосферное давление - измеренное на уровне метеостанции атмосферное давление.
Tmin - Минимальная температура - минимум температуры воздуха на высоте 2 м над землей.
Tmax - Максимальная температура - максимум температуры воздуха на высоте 2 м над землей.
R - Количество осадков - Количество выпавших осадков за 3 или 6 часов, мм.
SD - Снежный покров - Высота снежного покрова, см.